Aéroclub Cannes UACA

Aéroclub Cannes UACA
UACA
Approuvé A.T.O. EASA – N°FR.ATO.0108

UACA, UNION des aéroclubs
Cannes “Ailes d’Azur”, Nice “Côte d’Azur”, Grasse “St Exupery”, ACCA “Francis Séverac”

Un cache-pitot se trouve à bord de chaque avion. Pensez à le mettre en place à la fin de chaque vol !

Avant de quitter l'avion, vérifiez que vous n'emportez pas la checklist

Un vol ne s'entreprend qu'avec un pare-brise parfaitement propre, il en va de votre sécurité, et de celle des autres

Après chaque vol, merci de mettre en place les pares-soleil!


Météo à Cannes:
METAR
LFMD 290230Z AUTO VRB03KT CAVOK 19/16 Q1003 TEMPO BKN012 =
LFMD 290200Z 2903/3003 03005KT CAVOK PROB30 TEMPO 2903/2906 BKN012 BECMG 2907/2909 18012KT TEMPO 2913/2917 FEW040TCU TEMPO 2913/2923 BKN025 BECMG 2917/2919 VRB05KT

TAF
LFMD 290200Z 2903/3003 03005KT CAVOK PROB30 TEMPO 2903/2906 BKN012 BECMG 2907/2909 18012KT TEMPO 2913/2917 FEW040TCU TEMPO 2913/2923 BKN025 BECMG 2917/2919 VRB05KT =

SR / SS: 03:50 / 19:08 UTC (LFMD 2022-05-29)